Regional Weather Roundup
Issued by NWS Charleston, SC

Current Version | Previous Version | Graphics & Text | Print | Product List | Glossary On
Versions: 1 2 3 4 5 6 7 8 9 10 11 12 13 14 15 16 17 18 19 20 21 22 23 24 25 26 27 28 29 30 31 32 33 34 35 36 37 38 39 40 41 42 43 44 45 46 47 48 49 50
000
ASUS42 KCHS 260828
RWRCHS

REGIONAL WEATHER ROUNDUP
NATIONAL WEATHER SERVICE CHARLESTON SC
400 AM EDT MON SEP 26 2016

NOTE: "FAIR" INDICATES FEW OR NO CLOUDS BELOW 12,000 FEET WITH NO
SIGNIFICANT WEATHER AND/OR OBSTRUCTIONS TO VISIBILITY.

NOT ALL STATIONS ARE QUALITY CONTROLLED. USE DATA WITH CAUTION...
ESPECIALLY DEWPOINT OBSERVATIONS.

SCZ027-030-031-034>040-042>050-260900-
...SOUTHEAST SOUTH CAROLINA...

CITY           SKY/WX    TMP DP  RH WIND       PRES   REMARKS
N CHARLESTON   CLOUDY    75  71  87 NE6       30.04F
WATERFRONT PRK   N/A     79  75  87 E12       30.02F
MOUNT PLEASANT PTSUNNY   77  73  88 CALM      30.04F
JOHNS ISLAND   FAIR      79  75  89 E9G16     30.04S
PINOPOLIS        N/A     75  73  94 E9        29.99F
MONCKS CORNER  FAIR      72  70  94 NE3       30.05F
SUMMERVILLE    FAIR      72  72 100 N3        30.06F
BEAUFORT MCAS  CLOUDY    75  73  93 N7        30.02F
BEAUFORT ARPT  PTSUNNY   79  73  83 E10       30.02S
HILTON HEAD IS CLOUDY    81  75  83 NE8       30.02S
WALTERBORO     MOSUNNY   73  73 100 NE5       30.06S
ALLENDALE      PTSUNNY   72  72 100 CALM      30.04F FOG

...SOUTHERN MIDLANDS AND PEE DEE...

CITY           SKY/WX    TMP DP  RH WIND       PRES   REMARKS
GEORGETOWN     PTSUNNY   73  70  88 E3        30.07F
KINGSTREE      FAIR      70  68  94 CALM      30.07F FOG
ORANGEBURG     PTCLDY    72  71  97 CALM      30.07F
BARNWELL       NOT AVBL
AIKEN          FAIR      70  68  94 SE3       30.10F FOG
MANNING        FAIR      70  68  94 CALM      30.07F FOG
COLUMBIA       CLOUDY    74  71  91 E3        30.06F FOG
SUMTER         MOCLDY    72  70  95 NE5       30.06F
FLORENCE       CLEAR     70  67  90 E5        30.09F
MYRTLE BEACH   MOCLDY    72  63  73 NE7       30.09F
N MYRTLE BEACH CLEAR     69  67  93 NE6       30.08S

$$

GAZ063-065-086>088-099>101-113>116-118-119-134>141-150-260900-
...SOUTHEAST GEORGIA...

CITY           SKY/WX    TMP DP  RH WIND       PRES   REMARKS
SAVANNAH ARPT  CLOUDY    74  72  93 N5        30.02F FOG
HUNTER AAF     PTCLDY    76  76 100 VRB2      29.99F
FORT STEWART   MOCLDY    73  71  94 N3        29.98F
STATESBORO       N/A     72  72 100 CALM      30.03F FOG
SYLVANIA       NOT AVBL
CLAXTON        FAIR      69  69 100 CALM      30.02F

...CSRA...CENTRAL AND FAR SOUTHEAST GEORGIA...

CITY           SKY/WX    TMP DP  RH WIND       PRES   REMARKS
THOMSON        PTCLDY    70  70 100 CALM      30.12S
AUGUSTA-BUSH   MOCLDY    68  67  96 CALM      30.06F FOG
AUGUSTA-DANIEL MOCLDY    74  68  81 E5        30.07F
SWAINSBORO     FAIR      72  70  94 NE3       30.06S
VIDALIA        PTCLDY    72  72 100 CALM      30.04F FOG
EASTMAN          N/A     68  68 100 CALM      30.07F FOG
HAZLEHURST     FAIR      73  73 100 S3        30.02S
ALMA           PTCLDY    72  71  97 CALM      30.01F FOG
WAYCROSS       PTCLDY    74  74 100 NE3       30.01R
JESUP          FAIR      73  73 100 CALM      30.01S
BAXLEY         FAIR      73  73 100 NE3       30.01F FOG
BRUNSWICK      CLOUDY    77  75  94 N3        29.99F
SAINT SIMONS   MOCLDY    80  71  74 E10       29.98S

$$

SCZ027-028-034-036>038-045-046-048>050-GAZ119-141-260900-
...LAKE AND SUPPLEMENTAL COASTAL OBSERVATIONS...

STATION/POSITION TIME  TEMP    WIND        PRES    WAVE   SWELL
                       AIR SEA DIR/SP/G            HT/PER HT/PER/DIR
                 (UTC) (F)     (DEG/KT/KT) (MB)    (FT/S) (FT/S/D)
WINYAH BAY       0745   79      90/  9     1017.0F
LAKE MURRAY      0820   75      90/  6/  8 1017.9
ACE BASIN NERRS  0745   75        CALM     1017.0F
FORT PULASKI     0800   80 81   60/ 15/ 18 1016.4
SAPELO ISLAND    0800   76      90/  7     1015.0

$$

ANZ835-935-AMZ111-154-330-350-352-354-370-450-454-472-260900-
...C-MAN AND BUOY OBSERVATIONS...

STATION/POSITION TIME  TEMP    WIND        PRES    WAVE   SWELL
                       AIR SEA DIR/SP/G            HT/PER HT/PER/DIR
                 (UTC) (F)     (DEG/KT/KT) (MB)    (FT/S) (FT/S/D)
BUOY 41004       0750   78 82   80/ 16/ 19 1016.2F   5/ 6   2/ 90/ 9
BUOY 41008       0750   81 82   90/ 12/ 14 1015.1F   4/10   2/110/10
FOLLY BEACH CMAN 0800   80      80/ 16/ 19 1017.1F
CAPERS NEARSHORE 0808   80 81   90/ 16/ 21 1016.9F
FRIPP NEARSHORE  0808   80 81   90/ 16/ 19 1016.2F


STATION/POSITION TIME  TEMP    WIND        PRES    WAVE   SWELL
                       AIR SEA DIR/SP/G            HT/PER HT/PER/DIR
                 (UTC) (F)     (DEG/KT/KT) (MB)    (FT/S) (FT/S/D)
5E ST. MARYS GA  0801      82                N/A     4/10   2/ 70/11
FRYING PAN BUOY  0810   80 82   70/ 10/ 12 1017.6
BUOY 41025       0750   74 83   50/ 14/ 17 1018.9R   3/ 8   2/ 50/ 8
CAPE LOOKOUT NC  0800   74      50/ 10/ 12 1019.2R
BUOY 41002       0750   80 83   60/ 10/ 12 1016.3F   5/ 8   5/ 30/ 8
BUOY 41010       NOT AVBL
ST AUGUSTINE FL  0800   75 83  260/  4/  4 1015.6F


$$



USA.gov is the U.S. government's official web portal to all federal, state and local government web resources and services.